[[{"header":{"parameterUnit":"m.s-1","parameterCategory":2,"la1":30.2991,"la2":30.254,"lo1":-89.0895,"lo2":-89.0444,"dy":0.0017,"dx":0.0017,"nx":28,"ny":28,"refTime":"2023-11-09T03:00:00:Z","depth":"0","parameterNumber":2,"parameterNumberName":"U-component_of_CURRENTS"},"data":[0,0,0,0,0,0,0,0,0,0,0,0,0,0,0,0,0,0,0,0,0,0,0,0,0,0,0,0,0,0,0,0,0,0,0,0,0,0,0,0,0,0,0,0,0,0,0,0,0,0,0,0,0,0,0,0,0,0,-0.1811,-0.1811,0,-0.1812,-0.1812,-0.1812,-0.1794,-0.1793,-0.1793,-0.1793,-0.177,-0.177,-0.1769,0,0,0,0,0,0,0,0,0,0,0,0,0,-0.1793,-0.1793,-0.1811,-0.1811,-0.1812,-0.1812,-0.1812,-0.1812,-0.1794,-0.1793,-0.1793,-0.1793,-0.177,-0.177,-0.1769,0,0,0,0,0,0,0,0,0,0,0,0,0,-0.1795,-0.1793,-0.1811,-0.1805,-0.1804,-0.1812,-0.1812,-0.1812,-0.1794,-0.1793,-0.1793,-0.1793,-0.177,-0.177,-0.1769,-0.1773,0,0,-0.1768,-0.1767,0,0,0,0,0,0,0,0,-0.1795,-0.1796,-0.1805,-0.1805,-0.1805,-0.1805,-0.1797,-0.1799,-0.1794,-0.1795,-0.1793,-0.1792,-0.1781,-0.178,-0.1778,-0.1772,-0.1771,-0.1768,-0.1767,-0.1767,-0.1767,0,0,0,0,0,0,0,-0.1795,-0.1796,-0.1809,-0.1806,-0.1805,-0.1802,-0.1801,-0.1797,-0.1788,-0.1795,-0.1794,-0.1798,-0.1781,-0.1778,-0.1777,-0.1771,-0.1768,-0.1767,-0.1767,-0.1766,-0.1782,-0.1782,0,0,0,0,0,0,-0.1801,-0.1795,-0.1809,-0.1809,-0.1802,-0.1802,-0.1802,-0.1803,-0.1788,-0.1787,-0.1799,-0.1798,-0.1779,-0.1778,-0.1776,-0.179,-0.1767,-0.1766,-0.1766,-0.1781,-0.1782,-0.1783,0,0,0,0,0,0,-0.18,-0.1802,-0.1809,-0.1805,-0.1806,-0.1803,-0.1804,-0.1803,-0.1802,-0.1792,-0.1789,-0.18,-0.1779,-0.1777,-0.1781,-0.1789,-0.1766,-0.1766,-0.178,-0.1781,-0.1782,-0.1812,0,0,0,0,0,0,-0.18,-0.1801,-0.1798,-0.1805,-0.1806,-0.1825,-0.1805,-0.1804,-0.1807,-0.1805,-0.1792,-0.179,-0.1778,-0.1782,-0.1781,-0.1788,-0.1765,-0.1779,-0.1781,-0.1782,-0.181,-0.1814,-0.1818,0,0,0,0,0,-0.1799,-0.18,-0.1797,-0.1799,-0.1803,-0.1827,-0.1827,-0.1822,-0.1807,-0.1817,-0.1805,-0.179,-0.1789,-0.1782,-0.178,-0.1787,-0.1778,-0.178,-0.1782,-0.1809,-0.1814,-0.1818,0,0,0,0,0,0,-0.1783,-0.1799,-0.1796,-0.1799,-0.1817,-0.1825,-0.1825,-0.1826,-0.1823,-0.1816,-0.18,-0.1798,-0.1803,-0.1795,-0.1787,-0.1797,-0.1781,-0.1783,-0.1803,-0.1807,-0.1811,-0.1818,-0.1765,0,0,0,0,0,-0.1781,-0.1785,-0.1806,-0.1806,-0.1815,-0.182,-0.1825,-0.183,-0.1832,-0.183,-0.1822,-0.1812,-0.1808,-0.1808,-0.1803,-0.1811,-0.181,-0.1814,-0.1818,-0.1821,-0.1826,-0.183,-0.1835,-0.1788,-0.1788,-0.1788,0,0,-0.177,-0.1781,-0.178,-0.1803,-0.1809,-0.1831,-0.1821,-0.1837,-0.1853,-0.1828,-0.1835,-0.1824,-0.1813,-0.182,-0.1822,-0.1814,-0.1837,-0.1823,-0.1826,-0.183,-0.1833,-0.1837,-0.1841,-0.1789,-0.1789,-0.1789,0,0,-0.1764,-0.1767,-0.1774,-0.1796,-0.1821,-0.1834,-0.1843,-0.186,-0.1864,-0.1877,-0.186,-0.1857,-0.1853,-0.1848,-0.1843,-0.1866,-0.1855,-0.1864,-0.1888,-0.1892,-0.1896,-0.1899,-0.1916,-0.1921,-0.1867,-0.1867,-0.1867,0,-0.1748,-0.1767,-0.1781,-0.1803,-0.1822,-0.1838,-0.1862,-0.1874,-0.189,-0.1898,-0.1885,-0.188,-0.1865,-0.1874,-0.1879,-0.1873,-0.1879,-0.1871,-0.1897,-0.19,-0.1903,-0.1919,-0.1923,-0.1869,-0.1869,-0.1868,-0.1868,0,-0.1757,-0.1775,-0.1784,-0.1818,-0.1842,-0.1867,-0.1897,-0.1916,-0.192,-0.193,-0.1941,-0.1924,-0.1923,-0.1916,-0.1901,-0.1917,-0.1917,-0.1899,-0.1885,-0.1909,-0.1925,-0.1929,-0.1871,-0.1871,-0.187,-0.187,0,0,-0.1711,-0.1778,-0.1779,-0.1811,-0.1856,-0.1884,-0.1913,-0.1953,-0.1978,-0.1979,-0.2003,-0.1985,-0.1977,-0.1972,-0.1955,-0.1954,-0.1975,-0.1937,-0.1937,-0.1953,-0.1998,-0.2033,-0.204,-0.1961,-0.1962,-0.1962,-0.2005,0,-0.1712,-0.1764,-0.1796,-0.1848,-0.188,-0.1918,-0.1952,-0.1988,-0.2008,-0.2038,-0.2024,-0.2037,-0.2,-0.2002,-0.1994,-0.1981,-0.1986,-0.1966,-0.1973,-0.1973,-0.2,-0.2046,-0.2038,-0.2079,-0.2009,-0.201,-0.201,0,-0.1703,-0.1749,-0.1798,-0.1884,-0.1901,-0.1933,-0.2,-0.2037,-0.2079,-0.2093,-0.2099,-0.2098,-0.21,-0.2062,-0.2054,-0.2045,-0.2026,-0.2011,-0.2012,-0.2036,-0.2016,-0.2041,-0.2089,-0.1993,-0.2016,-0.2016,-0.2015,0,-0.1665,-0.1748,-0.1793,-0.1819,-0.1912,-0.1941,-0.1989,-0.2043,-0.209,-0.2128,-0.2161,-0.2157,-0.2173,-0.2139,-0.2109,-0.2086,-0.2104,-0.2067,-0.2084,-0.2086,-0.2078,-0.2079,-0.2033,-0.2065,-0.2065,-0.2065,-0.2065,0,-0.1651,-0.1687,-0.1782,-0.1807,-0.1873,-0.1937,-0.2,-0.2045,-0.2119,-0.219,-0.2186,-0.2238,-0.2194,-0.2202,-0.2146,-0.2143,-0.2135,-0.2107,-0.2105,-0.2091,-0.2092,-0.2006,-0.1968,-0.2067,-0.2066,-0.2066,-0.2066,0,-0.1594,-0.1653,-0.1713,-0.1816,-0.1852,-0.1894,-0.2012,-0.2081,-0.2136,-0.2229,-0.225,-0.2313,-0.2341,-0.2297,-0.2267,-0.2218,-0.2151,-0.2183,-0.218,-0.2178,-0.2108,-0.2073,-0.2075,-0.2018,-0.2218,-0.2219,-0.222,0,-0.1572,-0.1594,-0.1702,-0.1754,-0.1801,-0.1882,-0.1964,-0.2063,-0.2141,-0.2283,-0.2338,-0.2409,-0.2481,-0.2458,-0.2401,-0.2347,-0.2214,-0.2262,-0.2213,-0.2124,-0.2082,-0.2052,-0.2,-0.2214,-0.2214,-0.2215,-0.2216,0,-0.1532,-0.156,-0.1615,-0.1719,-0.1808,-0.1919,-0.2033,-0.2101,-0.2245,-0.2335,-0.2488,-0.2567,-0.2613,-0.2592,-0.2516,-0.2445,-0.2202,-0.2277,-0.2174,-0.208,-0.2055,-0.1993,-0.217,-0.2222,-0.2221,-0.2221,-0.2221,-0.222,-0.1495,-0.1516,-0.1594,-0.1687,-0.1806,-0.1954,-0.1996,-0.2151,-0.2284,-0.2416,-0.2548,-0.2628,-0.2612,-0.2555,-0.2523,-0.2349,-0.2319,-0.2193,-0.2162,-0.2143,-0.2077,-0.2288,-0.2342,-0.2342,-0.2342,-0.2343,-0.2343,0,-0.1462,-0.1499,-0.1577,-0.1692,-0.1809,-0.1885,-0.2045,-0.2076,-0.2201,-0.2378,-0.2497,-0.255,-0.2505,-0.2441,-0.232,-0.2219,-0.2159,-0.2072,-0.1989,-0.194,-0.2115,-0.21,-0.2117,-0.2117,-0.2117,-0.2117,-0.2117,-0.2117,-0.1444,-0.1484,-0.152,-0.1663,-0.1752,-0.1854,-0.1916,-0.1978,-0.2058,-0.2195,-0.2268,-0.2373,-0.2249,-0.2251,-0.2082,-0.1998,-0.1864,-0.186,-0.1777,-0.185,-0.1856,-0.1862,-0.1836,-0.1797,-0.1797,-0.1579,-0.1577,-0.1575]},{"header":{"parameterUnit":"m.s-1","parameterCategory":2,"la1":30.2991,"la2":30.254,"lo1":-89.0895,"lo2":-89.0444,"dy":0.0017,"dx":0.0017,"nx":28,"ny":28,"refTime":"2023-11-09T03:00:00:Z","depth":"0","parameterNumber":3,"parameterNumberName":"V-component_of_CURRENTS"},"data":[0,0,0,0,0,0,0,0,0,0,0,0,0,0,0,0,0,0,0,0,0,0,0,0,0,0,0,0,0,0,0,0,0,0,0,0,0,0,0,0,0,0,0,0,0,0,0,0,0,0,0,0,0,0,0,0,0,0,0.062,0.062,0,0.0607,0.0607,0.0607,0.0617,0.0618,0.0618,0.0618,0.065,0.0651,0.0651,0,0,0,0,0,0,0,0,0,0,0,0,0,0.0678,0.0676,0.062,0.062,0.062,0.0607,0.0607,0.0607,0.0617,0.0618,0.0618,0.0618,0.065,0.0651,0.0651,0,0,0,0,0,0,0,0,0,0,0,0,0,0.0658,0.0676,0.062,0.0623,0.0623,0.0607,0.0607,0.0607,0.0617,0.0618,0.0618,0.0619,0.065,0.0651,0.0651,0.0644,0,0,0.0654,0.0654,0,0,0,0,0,0,0,0,0.0659,0.0656,0.0623,0.0623,0.0623,0.0614,0.0639,0.0621,0.0617,0.062,0.0618,0.0619,0.0642,0.0643,0.0639,0.0645,0.0647,0.0654,0.0654,0.0654,0.0655,0,0,0,0,0,0,0,0.066,0.0656,0.0615,0.0622,0.0622,0.0633,0.0631,0.0636,0.0629,0.0619,0.062,0.0618,0.0642,0.0638,0.064,0.0647,0.0654,0.0654,0.0655,0.0655,0.0672,0.0672,0,0,0,0,0,0,0.0659,0.0657,0.0616,0.0615,0.0642,0.0631,0.0629,0.0617,0.0628,0.0629,0.0617,0.0618,0.0637,0.0639,0.0641,0.0642,0.0654,0.0655,0.0656,0.0672,0.0672,0.0672,0,0,0,0,0,0,0.066,0.0655,0.0616,0.0636,0.0632,0.063,0.0616,0.0616,0.0612,0.0625,0.0628,0.0613,0.0638,0.064,0.0647,0.0644,0.0655,0.0656,0.0672,0.0672,0.0672,0.0639,0,0,0,0,0,0,0.0661,0.0655,0.0643,0.0636,0.0631,0.0601,0.0615,0.0615,0.0609,0.0611,0.0623,0.0626,0.0638,0.0646,0.0648,0.0645,0.0657,0.0672,0.0672,0.0672,0.064,0.0638,0.0636,0,0,0,0,0,0.0663,0.0643,0.0642,0.0638,0.0615,0.06,0.0598,0.06,0.0608,0.06,0.0614,0.0626,0.0648,0.0646,0.0648,0.0646,0.0672,0.0672,0.0672,0.0641,0.0638,0.0636,0,0,0,0,0,0,0.0659,0.0642,0.0641,0.0616,0.0607,0.0602,0.0591,0.0596,0.0599,0.0604,0.0621,0.0625,0.0632,0.0643,0.0641,0.0652,0.0663,0.0664,0.0639,0.0637,0.0634,0.0639,0.0657,0,0,0,0,0,0.0653,0.0633,0.0623,0.0602,0.0596,0.0594,0.0588,0.0591,0.0593,0.0594,0.0602,0.0617,0.0633,0.0638,0.0649,0.0649,0.0673,0.0652,0.065,0.0648,0.0654,0.0688,0.069,0.0672,0.0672,0.0672,0,0,0.0645,0.0633,0.0622,0.06,0.0593,0.0577,0.0591,0.0579,0.0576,0.0598,0.0593,0.0609,0.0632,0.0636,0.0641,0.0645,0.0663,0.0648,0.0646,0.0653,0.0688,0.069,0.0692,0.0672,0.0672,0.0672,0,0,0.0617,0.0608,0.0582,0.0573,0.0561,0.0562,0.0558,0.0551,0.0558,0.0556,0.0578,0.0594,0.0601,0.0622,0.0635,0.0629,0.0653,0.0629,0.062,0.0652,0.0654,0.0656,0.0679,0.0683,0.0627,0.0627,0.0626,0,0.0609,0.0572,0.0573,0.0548,0.0539,0.0554,0.053,0.0539,0.0538,0.0547,0.0552,0.0583,0.0599,0.0623,0.0621,0.0625,0.0643,0.0624,0.0649,0.0652,0.0655,0.0678,0.0683,0.0625,0.0625,0.0625,0.0625,0,0.0562,0.0535,0.0519,0.0494,0.0489,0.047,0.0483,0.0486,0.05,0.0513,0.0536,0.0561,0.0583,0.0589,0.0602,0.0627,0.0634,0.0643,0.0654,0.0654,0.0679,0.0685,0.0623,0.0623,0.0624,0.0624,0,0,0.0533,0.0492,0.0487,0.0464,0.0459,0.0446,0.0454,0.0461,0.0472,0.0488,0.0504,0.0535,0.0557,0.0574,0.0596,0.0623,0.0652,0.0636,0.0638,0.0656,0.0717,0.0724,0.0732,0.0663,0.0664,0.0665,0.0723,0,0.0493,0.0432,0.0433,0.0389,0.0357,0.0385,0.0389,0.0408,0.0437,0.0459,0.0509,0.053,0.055,0.0561,0.0594,0.0644,0.0668,0.0635,0.0717,0.072,0.0725,0.0739,0.0774,0.0829,0.0729,0.073,0.0731,0,0.044,0.0406,0.0351,0.0327,0.032,0.0307,0.0325,0.0333,0.0388,0.0414,0.0458,0.0501,0.0554,0.0566,0.0656,0.0633,0.067,0.0706,0.0709,0.0735,0.0739,0.0816,0.0844,0.0914,0.0741,0.074,0.0739,0,0.0399,0.035,0.0304,0.0293,0.0275,0.0269,0.027,0.0312,0.0325,0.0388,0.0411,0.0485,0.0524,0.059,0.0671,0.0663,0.0767,0.0768,0.0808,0.0809,0.0866,0.0869,0.0973,0.0823,0.0822,0.0822,0.0822,0,0.0347,0.031,0.0277,0.025,0.0211,0.0221,0.0205,0.0233,0.0274,0.0287,0.038,0.0414,0.0532,0.0609,0.0672,0.0766,0.0771,0.0815,0.083,0.0853,0.0855,0.094,0.0955,0.0825,0.0824,0.0824,0.0823,0,0.0304,0.0282,0.0224,0.0193,0.0183,0.0155,0.0145,0.0138,0.0197,0.0222,0.0241,0.0367,0.0477,0.0593,0.0711,0.0768,0.0903,0.0876,0.0891,0.0906,0.1003,0.1013,0.1147,0.1183,0.0936,0.0936,0.0937,0,0.0273,0.0236,0.018,0.0137,0.0116,0.0078,0.0052,0.0089,0.0087,0.0186,0.0191,0.0325,0.0412,0.0609,0.0761,0.0896,0.0933,0.0973,0.0966,0.1023,0.1046,0.1076,0.1097,0.1027,0.1029,0.103,0.103,0,0.0218,0.0201,0.0158,0.0063,0.0014,-0.0034,-0.0065,-0.0074,-0.0022,0.002,0.0092,0.018,0.0429,0.0634,0.0837,0.0908,0.1037,0.0995,0.1065,0.1137,0.1169,0.1204,0.0963,0.1039,0.1038,0.1038,0.1037,0.1037,0.0182,0.0138,0.0069,-0.002,-0.0087,-0.0159,-0.0211,-0.0213,-0.0213,-0.0147,-0.0009,0.014,0.0494,0.0812,0.0922,0.115,0.1115,0.1186,0.1197,0.1225,0.1257,0.1023,0.1105,0.1104,0.1104,0.1103,0.1103,0,0.012,0.0066,-0.002,-0.0135,-0.0241,-0.0247,-0.0306,-0.0354,-0.038,-0.0232,-0.0132,0.0245,0.0584,0.0893,0.1253,0.1355,0.1398,0.138,0.1443,0.1456,0.127,0.1271,0.138,0.138,0.1379,0.1379,0.1379,0.1379,0.008,-0.0016,-0.0068,-0.0262,-0.0347,-0.0477,-0.0524,-0.0553,-0.0491,-0.0338,-0.0116,0.0075,0.0547,0.1211,0.1532,0.1545,0.1623,0.1624,0.1642,0.1521,0.1504,0.1488,0.1495,0.1649,0.1649,0.1853,0.1855,0.1856]}],[{"header":{"parameterUnit":"m.s-1","parameterCategory":2,"la1":30.2991,"la2":30.254,"lo1":-89.0895,"lo2":-89.0444,"dy":0.0017,"dx":0.0017,"nx":28,"ny":28,"refTime":"2023-11-09T03:00:00:Z","depth":"2","parameterNumber":2,"parameterNumberName":"U-component_of_CURRENTS"},"data":[0,0,0,0,0,0,0,0,0,0,0,0,0,0,0,0,0,0,0,0,0,0,0,0,0,0,0,0,0,0,0,0,0,0,0,0,0,0,0,0,0,0,0,0,0,0,0,0,0,0,0,0,0,0,0,0,0,0,-0.1252,-0.1252,0,-0.1264,-0.1265,-0.1265,-0.1256,-0.1255,-0.1255,-0.1255,-0.124,-0.124,-0.124,0,0,0,0,0,0,0,0,0,0,0,0,0,-0.1233,-0.1233,-0.1252,-0.1252,-0.1252,-0.1264,-0.1265,-0.1265,-0.1256,-0.1255,-0.1255,-0.1254,-0.124,-0.124,-0.124,0,0,0,0,0,0,0,0,0,0,0,0,0,-0.1242,-0.1233,-0.1252,-0.125,-0.125,-0.1264,-0.1265,-0.1265,-0.1256,-0.1255,-0.1255,-0.1254,-0.124,-0.124,-0.124,-0.125,0,0,-0.1239,-0.1239,0,0,0,0,0,0,0,0,-0.1241,-0.1243,-0.125,-0.125,-0.125,-0.1258,-0.1252,-0.1259,-0.1256,-0.1253,-0.1255,-0.1254,-0.1244,-0.1244,-0.1247,-0.1249,-0.1248,-0.1239,-0.1239,-0.1239,-0.1239,0,0,0,0,0,0,0,-0.1241,-0.1242,-0.1256,-0.125,-0.125,-0.1252,-0.1253,-0.1254,-0.125,-0.1253,-0.1253,-0.1255,-0.1244,-0.1247,-0.1246,-0.1248,-0.1239,-0.1239,-0.1239,-0.1239,-0.1249,-0.1249,0,0,0,0,0,0,-0.124,-0.1242,-0.1256,-0.1257,-0.1245,-0.1253,-0.1254,-0.1256,-0.1251,-0.125,-0.1256,-0.1255,-0.1248,-0.1247,-0.1246,-0.1245,-0.1239,-0.1239,-0.1239,-0.1248,-0.1249,-0.1249,0,0,0,0,0,0,-0.124,-0.1242,-0.1255,-0.125,-0.1252,-0.1254,-0.1256,-0.1256,-0.1257,-0.1253,-0.1252,-0.1256,-0.1247,-0.1246,-0.1247,-0.1245,-0.1239,-0.1239,-0.1248,-0.1248,-0.1249,-0.1251,0,0,0,0,0,0,-0.1239,-0.1241,-0.1242,-0.125,-0.1252,-0.1266,-0.1257,-0.1257,-0.1259,-0.1258,-0.1253,-0.1251,-0.1247,-0.1247,-0.1247,-0.1244,-0.1239,-0.1247,-0.1248,-0.1249,-0.1251,-0.1252,-0.1252,0,0,0,0,0,-0.1239,-0.1244,-0.1242,-0.1243,-0.1253,-0.1266,-0.1268,-0.1267,-0.126,-0.1264,-0.1259,-0.1251,-0.1251,-0.1248,-0.1247,-0.1244,-0.1247,-0.1248,-0.1249,-0.125,-0.1251,-0.1252,0,0,0,0,0,0,-0.1237,-0.1244,-0.1241,-0.1248,-0.1256,-0.1265,-0.1268,-0.1268,-0.1268,-0.1263,-0.1257,-0.1256,-0.1255,-0.1253,-0.125,-0.125,-0.1247,-0.1247,-0.1248,-0.1249,-0.125,-0.1255,-0.1239,0,0,0,0,0,-0.1237,-0.124,-0.1249,-0.1254,-0.1257,-0.1262,-0.1266,-0.1266,-0.1269,-0.1268,-0.1265,-0.1261,-0.1259,-0.1257,-0.1256,-0.1258,-0.1252,-0.1256,-0.1257,-0.1258,-0.1262,-0.1255,-0.1255,-0.1251,-0.1251,-0.1251,0,0,-0.1236,-0.1241,-0.1242,-0.1253,-0.1257,-0.1267,-0.1263,-0.127,-0.1275,-0.1267,-0.127,-0.1265,-0.1261,-0.1261,-0.126,-0.1258,-0.1254,-0.1258,-0.1259,-0.1263,-0.1255,-0.1256,-0.1256,-0.1252,-0.1252,-0.1251,0,0,-0.1241,-0.1242,-0.1247,-0.1255,-0.1263,-0.1269,-0.1271,-0.1279,-0.1279,-0.1285,-0.1276,-0.1273,-0.1273,-0.1268,-0.1266,-0.1273,-0.126,-0.127,-0.1277,-0.127,-0.127,-0.127,-0.1256,-0.1255,-0.127,-0.127,-0.127,0,-0.124,-0.1246,-0.1252,-0.1261,-0.1265,-0.127,-0.1277,-0.1283,-0.129,-0.1289,-0.1286,-0.1281,-0.1277,-0.1273,-0.1276,-0.1274,-0.1266,-0.1271,-0.127,-0.127,-0.127,-0.1256,-0.1255,-0.127,-0.127,-0.127,-0.127,0,-0.1251,-0.1254,-0.1259,-0.1269,-0.1277,-0.1284,-0.1294,-0.1299,-0.1297,-0.13,-0.1296,-0.1292,-0.1287,-0.1285,-0.1284,-0.128,-0.1273,-0.1271,-0.1266,-0.127,-0.1255,-0.1254,-0.127,-0.127,-0.127,-0.127,0,0,-0.1246,-0.1262,-0.1262,-0.1263,-0.1279,-0.1284,-0.1296,-0.1304,-0.1306,-0.1309,-0.1307,-0.1305,-0.1298,-0.1296,-0.1288,-0.1285,-0.1276,-0.128,-0.128,-0.1263,-0.1254,-0.1317,-0.1321,-0.1273,-0.1273,-0.1273,-0.1241,0,-0.1247,-0.1259,-0.1269,-0.1276,-0.1281,-0.129,-0.13,-0.1308,-0.1313,-0.1317,-0.1309,-0.1307,-0.1303,-0.1297,-0.1293,-0.1283,-0.1274,-0.1285,-0.1255,-0.1254,-0.1307,-0.1323,-0.1193,-0.1161,-0.1239,-0.1239,-0.1239,0,-0.1249,-0.1256,-0.1261,-0.127,-0.1273,-0.1278,-0.1285,-0.1294,-0.1305,-0.131,-0.1308,-0.1309,-0.1304,-0.1301,-0.1282,-0.1288,-0.1273,-0.1264,-0.1262,-0.1322,-0.1316,-0.117,-0.1155,-0.1236,-0.1236,-0.1236,-0.1237,0,-0.123,-0.1246,-0.1244,-0.1249,-0.1266,-0.1264,-0.1269,-0.1284,-0.1292,-0.1301,-0.1316,-0.1304,-0.1308,-0.1286,-0.1286,-0.1277,-0.127,-0.125,-0.1287,-0.129,-0.1177,-0.1172,-0.1234,-0.1234,-0.1234,-0.1234,-0.1234,0,-0.1222,-0.1219,-0.1232,-0.123,-0.1227,-0.1242,-0.1241,-0.1253,-0.1271,-0.1296,-0.1304,-0.1336,-0.1308,-0.1313,-0.1288,-0.13,-0.1269,-0.1297,-0.1294,-0.1176,-0.1172,-0.1237,-0.1238,-0.1233,-0.1233,-0.1233,-0.1233,0,-0.1195,-0.1206,-0.1202,-0.1214,-0.1216,-0.1208,-0.1223,-0.1229,-0.1256,-0.1292,-0.13,-0.1349,-0.1382,-0.1361,-0.1339,-0.1321,-0.1308,-0.1315,-0.1188,-0.1173,-0.1322,-0.1323,-0.1337,-0.1339,-0.1341,-0.1343,-0.1344,0,-0.1179,-0.1175,-0.1182,-0.1178,-0.1178,-0.1175,-0.1179,-0.1208,-0.123,-0.132,-0.1344,-0.1402,-0.1489,-0.1488,-0.1433,-0.14,-0.1382,-0.1248,-0.1224,-0.1341,-0.1336,-0.1334,-0.1333,-0.1048,-0.1047,-0.1046,-0.1045,0,-0.1147,-0.1146,-0.1144,-0.1139,-0.1138,-0.1144,-0.1161,-0.1191,-0.1253,-0.1326,-0.1458,-0.1547,-0.1582,-0.152,-0.1469,-0.1417,-0.1246,-0.1234,-0.136,-0.1082,-0.1077,-0.107,-0.1076,-0.1036,-0.1037,-0.1038,-0.1038,-0.1039,-0.1114,-0.1104,-0.11,-0.1092,-0.1097,-0.1119,-0.1116,-0.1188,-0.1263,-0.1365,-0.1495,-0.154,-0.1475,-0.1371,-0.1338,-0.1251,-0.1322,-0.118,-0.1178,-0.1178,-0.119,-0.1194,-0.1175,-0.1176,-0.1178,-0.1179,-0.118,0,-0.1076,-0.1066,-0.1056,-0.1051,-0.1049,-0.1059,-0.1101,-0.1109,-0.1214,-0.1289,-0.1421,-0.125,-0.1258,-0.1185,-0.1079,-0.1097,-0.1035,-0.1019,-0.0894,-0.0904,-0.0913,-0.0907,-0.0818,-0.0817,-0.0816,-0.0816,0,0,-0.1052,-0.1031,-0.1027,-0.1002,-0.0996,-0.0965,-0.098,-0.1031,-0.104,-0.1067,-0.1032,-0.1153,-0.1113,-0.091,-0.0906,-0.085,-0.0859,-0.0815,-0.1096,-0.0954,-0.0961,-0.0993,-0.0996,0,0,0,0,0]},{"header":{"parameterUnit":"m.s-1","parameterCategory":2,"la1":30.2991,"la2":30.254,"lo1":-89.0895,"lo2":-89.0444,"dy":0.0017,"dx":0.0017,"nx":28,"ny":28,"refTime":"2023-11-09T03:00:00:Z","depth":"2","parameterNumber":3,"parameterNumberName":"V-component_of_CURRENTS"},"data":[0,0,0,0,0,0,0,0,0,0,0,0,0,0,0,0,0,0,0,0,0,0,0,0,0,0,0,0,0,0,0,0,0,0,0,0,0,0,0,0,0,0,0,0,0,0,0,0,0,0,0,0,0,0,0,0,0,0,-0.0649,-0.0649,0,-0.0634,-0.0634,-0.0634,-0.0618,-0.0618,-0.0618,-0.0618,-0.0557,-0.0556,-0.0554,0,0,0,0,0,0,0,0,0,0,0,0,0,-0.0631,-0.0631,-0.0649,-0.0649,-0.0649,-0.0634,-0.0634,-0.0634,-0.0618,-0.0618,-0.0618,-0.0618,-0.0558,-0.0556,-0.0554,0,0,0,0,0,0,0,0,0,0,0,0,0,-0.0629,-0.0631,-0.0649,-0.064,-0.064,-0.0634,-0.0634,-0.0634,-0.0618,-0.0618,-0.0618,-0.0618,-0.0558,-0.0556,-0.0554,-0.0544,0,0,-0.0547,-0.0546,0,0,0,0,0,0,0,0,-0.0629,-0.0629,-0.0642,-0.0641,-0.064,-0.0629,-0.0605,-0.0602,-0.0618,-0.0625,-0.0618,-0.0618,-0.0578,-0.0574,-0.0571,-0.0541,-0.0538,-0.0547,-0.0546,-0.0545,-0.0544,0,0,0,0,0,0,0,-0.0629,-0.063,-0.0643,-0.0642,-0.0641,-0.0625,-0.0625,-0.0604,-0.0601,-0.0625,-0.0624,-0.0624,-0.0577,-0.0573,-0.0569,-0.0538,-0.0547,-0.0545,-0.0544,-0.0543,-0.0481,-0.048,0,0,0,0,0,0,-0.0635,-0.063,-0.0643,-0.0642,-0.0635,-0.0626,-0.0626,-0.0632,-0.0602,-0.0598,-0.0624,-0.0623,-0.0577,-0.0572,-0.0567,-0.0541,-0.0545,-0.0542,-0.0541,-0.0481,-0.0481,-0.048,0,0,0,0,0,0,-0.0635,-0.0636,-0.0644,-0.0636,-0.0636,-0.0627,-0.0634,-0.0632,-0.0623,-0.0602,-0.0597,-0.0617,-0.0577,-0.057,-0.0548,-0.0539,-0.0541,-0.0539,-0.0481,-0.0481,-0.0481,-0.0498,0,0,0,0,0,0,-0.0634,-0.0637,-0.0639,-0.0637,-0.0637,-0.064,-0.0634,-0.0632,-0.0624,-0.0623,-0.0595,-0.059,-0.0576,-0.0552,-0.0546,-0.0536,-0.0538,-0.0482,-0.0481,-0.0481,-0.0498,-0.0498,-0.0498,0,0,0,0,0,-0.0634,-0.0642,-0.0639,-0.064,-0.0641,-0.064,-0.0639,-0.0631,-0.0624,-0.0622,-0.0604,-0.059,-0.0544,-0.055,-0.0543,-0.0533,-0.0482,-0.0481,-0.0481,-0.0497,-0.0498,-0.0498,0,0,0,0,0,0,-0.0633,-0.0641,-0.0638,-0.0647,-0.0643,-0.0638,-0.0635,-0.0629,-0.0614,-0.061,-0.0588,-0.0582,-0.0558,-0.0543,-0.0551,-0.0513,-0.051,-0.0508,-0.0525,-0.0525,-0.0525,-0.0525,-0.0536,0,0,0,0,0,-0.0635,-0.0643,-0.0643,-0.0649,-0.0648,-0.064,-0.0636,-0.0632,-0.0621,-0.0614,-0.0595,-0.0572,-0.0551,-0.0537,-0.0518,-0.0498,-0.0476,-0.0485,-0.0486,-0.0486,-0.0481,-0.0447,-0.0444,-0.0478,-0.0478,-0.0478,0,0,-0.0635,-0.0641,-0.0644,-0.0649,-0.0645,-0.0644,-0.0637,-0.0634,-0.0628,-0.0609,-0.0591,-0.0572,-0.0546,-0.0525,-0.0513,-0.0511,-0.0465,-0.0485,-0.0486,-0.0481,-0.0446,-0.0443,-0.044,-0.0478,-0.0478,-0.0478,0,0,-0.0643,-0.0646,-0.0654,-0.0652,-0.065,-0.0645,-0.0644,-0.0637,-0.0627,-0.0613,-0.0594,-0.057,-0.0542,-0.052,-0.0505,-0.0493,-0.0468,-0.0487,-0.0487,-0.0454,-0.0451,-0.0448,-0.0416,-0.041,-0.0487,-0.0487,-0.0487,0,-0.0641,-0.0655,-0.0654,-0.0659,-0.0657,-0.0646,-0.0648,-0.0638,-0.0623,-0.0611,-0.0609,-0.0558,-0.0538,-0.0503,-0.0502,-0.0493,-0.0473,-0.049,-0.0455,-0.0452,-0.0448,-0.0416,-0.0409,-0.0488,-0.0488,-0.0488,-0.0488,0,-0.0656,-0.0661,-0.0665,-0.0669,-0.0665,-0.0666,-0.0654,-0.0643,-0.063,-0.0617,-0.0583,-0.0557,-0.0525,-0.0515,-0.0506,-0.047,-0.0462,-0.0461,-0.0456,-0.0446,-0.0412,-0.0405,-0.0489,-0.0489,-0.0488,-0.0488,0,0,-0.0668,-0.0675,-0.0676,-0.0678,-0.0671,-0.0671,-0.0656,-0.064,-0.0626,-0.0604,-0.0578,-0.0544,-0.0526,-0.0508,-0.0488,-0.0461,-0.0422,-0.0454,-0.0452,-0.0425,-0.0349,-0.0273,-0.0258,-0.0417,-0.0416,-0.0415,-0.0335,0,-0.0678,-0.0694,-0.069,-0.0694,-0.0699,-0.0681,-0.067,-0.0651,-0.0627,-0.0598,-0.056,-0.053,-0.0524,-0.0507,-0.0478,-0.0433,-0.0403,-0.0444,-0.0359,-0.0357,-0.0293,-0.0247,-0.0321,-0.025,-0.0328,-0.0326,-0.0326,0,-0.0695,-0.0703,-0.0713,-0.071,-0.0709,-0.0706,-0.0682,-0.067,-0.0624,-0.0604,-0.0563,-0.0532,-0.048,-0.0481,-0.0398,-0.0425,-0.0388,-0.0357,-0.0353,-0.027,-0.0266,-0.0271,-0.0233,-0.0313,-0.0314,-0.0315,-0.0316,0,-0.0711,-0.0717,-0.0726,-0.0726,-0.0721,-0.0715,-0.0706,-0.0671,-0.0656,-0.0601,-0.0576,-0.0517,-0.0475,-0.0425,-0.0355,-0.0377,-0.026,-0.0282,-0.0178,-0.0173,-0.021,-0.0209,-0.0222,-0.0222,-0.0222,-0.0222,-0.0223,0,-0.0727,-0.0733,-0.0736,-0.0742,-0.0748,-0.0733,-0.0723,-0.0702,-0.0664,-0.0641,-0.0581,-0.0536,-0.0459,-0.0383,-0.0339,-0.0217,-0.0243,-0.0158,-0.0137,-0.0217,-0.0217,-0.0256,-0.0261,-0.0219,-0.022,-0.0221,-0.0221,0,-0.0743,-0.0746,-0.0758,-0.0757,-0.0758,-0.0761,-0.0747,-0.074,-0.0694,-0.0656,-0.0638,-0.0539,-0.0423,-0.0336,-0.0232,-0.0177,-0.0087,-0.0044,-0.0134,-0.0123,-0.0032,-0.0039,0.0082,0.0086,0.0089,0.0091,0.0093,0,-0.0752,-0.0761,-0.0773,-0.0783,-0.0784,-0.0786,-0.0791,-0.0762,-0.0754,-0.0657,-0.0643,-0.0505,-0.0417,-0.021,-0.0065,0.0067,0.0011,0.0054,0.0012,-0.0003,0.0004,-0.0007,-0.0018,-0.0058,-0.0057,-0.0057,-0.0056,0,-0.0765,-0.077,-0.0778,-0.0808,-0.0821,-0.0835,-0.0837,-0.0841,-0.0798,-0.0765,-0.0697,-0.061,-0.0339,-0.0192,0.0034,0.0089,0.0032,0.0076,0.0083,-0.0105,-0.0123,-0.0119,-0.0128,-0.0051,-0.0052,-0.0052,-0.0052,-0.0052,-0.0768,-0.0779,-0.0799,-0.0827,-0.0851,-0.0887,-0.0908,-0.0925,-0.0929,-0.0899,-0.0775,-0.0652,-0.046,-0.0134,0.0041,0.021,0.0188,0.0123,0.0115,0.0108,0.0096,0.0087,0.0195,0.0195,0.0196,0.0197,0.0197,0,-0.0767,-0.0787,-0.0818,-0.0858,-0.0898,-0.0904,-0.0941,-0.0973,-0.1017,-0.0952,-0.0899,-0.0656,-0.0468,-0.0223,0.007,0.0232,0.0201,0.0216,0.009,0.0082,0.0076,0.0058,0.0149,0.015,0.0151,0.0152,0,0,-0.0765,-0.0793,-0.0818,-0.0891,-0.0923,-0.0986,-0.1015,-0.1078,-0.1053,-0.0987,-0.0893,-0.082,-0.0493,-0.0333,-0.0136,0.0025,0.0022,0.0046,0.0051,-0.0133,-0.0139,-0.0027,-0.0067,0,0,0,0,0]}],[{"header":{"parameterUnit":"m.s-1","parameterCategory":2,"la1":30.2991,"la2":30.254,"lo1":-89.0895,"lo2":-89.0444,"dy":0.0017,"dx":0.0017,"nx":28,"ny":28,"refTime":"2023-11-09T03:00:00:Z","depth":"4","parameterNumber":2,"parameterNumberName":"U-component_of_CURRENTS"},"data":[0,0,0,0,0,0,0,0,0,0,0,0,0,0,0,0,0,0,0,0,0,0,0,0,0,0,0,0,0,0,0,0,0,0,0,0,0,0,0,0,0,0,0,0,0,0,0,0,0,0,0,0,0,0,0,0,0,0,-0.073,-0.0731,0,-0.0758,-0.0758,-0.0757,-0.0787,-0.0789,-0.079,-0.0791,-0.0911,-0.0913,-0.0915,0,0,0,0,0,0,0,0,0,0,0,0,0,-0.0672,-0.0673,-0.073,-0.0731,-0.0733,-0.0758,-0.0758,-0.0757,-0.0787,-0.0789,-0.079,-0.0792,-0.0911,-0.0913,-0.0915,0,0,0,0,0,0,0,0,0,0,0,0,0,-0.0689,-0.0673,-0.073,-0.0758,-0.0761,-0.0758,-0.0758,-0.0757,-0.0787,-0.0789,-0.0791,-0.0793,-0.091,-0.0913,-0.0916,-0.0894,0,0,-0.0924,-0.0926,0,0,0,0,0,0,0,0,-0.0688,-0.069,-0.0753,-0.0756,-0.076,-0.078,-0.0782,-0.0811,-0.0786,-0.0767,-0.0791,-0.0794,-0.0881,-0.0886,-0.0872,-0.09,-0.0905,-0.0925,-0.0927,-0.0928,-0.0929,0,0,0,0,0,0,0,-0.0687,-0.0689,-0.0731,-0.0754,-0.0759,-0.0759,-0.0763,-0.0786,-0.0806,-0.0769,-0.0773,-0.0791,-0.0882,-0.0869,-0.0875,-0.0906,-0.0925,-0.0927,-0.0929,-0.093,-0.1053,-0.1054,0,0,0,0,0,0,-0.0703,-0.0688,-0.0731,-0.0733,-0.0739,-0.076,-0.0763,-0.0763,-0.0804,-0.0815,-0.079,-0.0793,-0.0863,-0.0872,-0.088,-0.102,-0.0928,-0.0931,-0.0932,-0.1051,-0.1053,-0.1055,0,0,0,0,0,0,-0.0701,-0.0705,-0.073,-0.072,-0.0725,-0.076,-0.0759,-0.0763,-0.0795,-0.0821,-0.0831,-0.0824,-0.0864,-0.0876,-0.0947,-0.1019,-0.0932,-0.0935,-0.105,-0.1052,-0.1054,-0.1196,0,0,0,0,0,0,-0.0699,-0.0704,-0.0719,-0.0721,-0.0726,-0.0754,-0.0758,-0.0763,-0.0805,-0.081,-0.0853,-0.0863,-0.0867,-0.0943,-0.095,-0.1022,-0.0937,-0.1048,-0.1051,-0.1053,-0.119,-0.1203,-0.1215,0,0,0,0,0,-0.0696,-0.0714,-0.0719,-0.0726,-0.0742,-0.0756,-0.0758,-0.0783,-0.0806,-0.0818,-0.0863,-0.0864,-0.0966,-0.0947,-0.0955,-0.1029,-0.1046,-0.105,-0.1053,-0.1184,-0.12,-0.1214,0,0,0,0,0,0,-0.0701,-0.072,-0.0725,-0.0749,-0.0764,-0.0766,-0.079,-0.0806,-0.0843,-0.0869,-0.0887,-0.09,-0.0982,-0.0976,-0.0955,-0.1066,-0.1005,-0.101,-0.1102,-0.1117,-0.1129,-0.1126,-0.0939,0,0,0,0,0,-0.0707,-0.0725,-0.0738,-0.076,-0.0771,-0.0784,-0.0801,-0.082,-0.0852,-0.087,-0.0907,-0.0947,-0.0989,-0.1034,-0.105,-0.1122,-0.1086,-0.1169,-0.1181,-0.1192,-0.1192,-0.1182,-0.1194,-0.1066,-0.1066,-0.1066,0,0,-0.0716,-0.0732,-0.0742,-0.0764,-0.0775,-0.0792,-0.0798,-0.0838,-0.0866,-0.088,-0.0947,-0.0988,-0.1011,-0.1088,-0.1126,-0.1108,-0.1214,-0.1197,-0.1207,-0.12,-0.1187,-0.1199,-0.121,-0.1068,-0.1068,-0.1067,0,0,-0.0735,-0.0754,-0.0771,-0.0785,-0.0823,-0.0829,-0.0853,-0.0882,-0.0912,-0.097,-0.1,-0.108,-0.1133,-0.1178,-0.1203,-0.1288,-0.1266,-0.1314,-0.1403,-0.1394,-0.1405,-0.1414,-0.1405,-0.1412,-0.1339,-0.1339,-0.1339,0,-0.0745,-0.0764,-0.0781,-0.0799,-0.0821,-0.0852,-0.0875,-0.09,-0.0957,-0.1007,-0.1008,-0.114,-0.1163,-0.1282,-0.1325,-0.1319,-0.1314,-0.1354,-0.1412,-0.142,-0.1426,-0.1415,-0.1421,-0.1346,-0.1345,-0.1345,-0.1344,0,-0.0762,-0.0789,-0.0804,-0.0832,-0.0857,-0.0886,-0.0922,-0.0967,-0.1016,-0.1066,-0.1192,-0.1237,-0.1321,-0.1359,-0.1376,-0.1475,-0.1457,-0.1417,-0.1379,-0.1448,-0.1432,-0.1435,-0.1357,-0.1354,-0.1352,-0.135,0,0,-0.0747,-0.0802,-0.081,-0.0831,-0.088,-0.09,-0.0957,-0.1027,-0.1095,-0.118,-0.1278,-0.1385,-0.1454,-0.1484,-0.1541,-0.1568,-0.1621,-0.1543,-0.1539,-0.1543,-0.1623,-0.1446,-0.1431,-0.1611,-0.1612,-0.1613,-0.1601,0,-0.0754,-0.0787,-0.0822,-0.0869,-0.0887,-0.0937,-0.0987,-0.1069,-0.1145,-0.1248,-0.1355,-0.1468,-0.1491,-0.1574,-0.1606,-0.1608,-0.1634,-0.1628,-0.1546,-0.1543,-0.1384,-0.143,-0.1616,-0.1603,-0.1604,-0.1604,-0.1604,0,-0.0755,-0.078,-0.0821,-0.089,-0.0906,-0.095,-0.1047,-0.1101,-0.1251,-0.1348,-0.1496,-0.1557,-0.1679,-0.1651,-0.1696,-0.1703,-0.1679,-0.1665,-0.1662,-0.1443,-0.137,-0.1511,-0.1609,-0.1609,-0.1609,-0.1608,-0.1608,0,-0.0721,-0.0783,-0.082,-0.0839,-0.0918,-0.0967,-0.1021,-0.1148,-0.1215,-0.1433,-0.1525,-0.166,-0.1733,-0.1729,-0.1714,-0.1713,-0.1715,-0.168,-0.1502,-0.1489,-0.1592,-0.1582,-0.1681,-0.1681,-0.1681,-0.1681,-0.1681,0,-0.0706,-0.0732,-0.0816,-0.0833,-0.0891,-0.0967,-0.1068,-0.1162,-0.1313,-0.1394,-0.1592,-0.1627,-0.1753,-0.1757,-0.1732,-0.1624,-0.1716,-0.1513,-0.147,-0.1654,-0.1651,-0.1595,-0.1585,-0.1681,-0.1681,-0.1681,-0.1681,0,-0.0663,-0.0709,-0.0746,-0.084,-0.0876,-0.092,-0.1056,-0.1114,-0.1314,-0.1412,-0.1486,-0.1622,-0.1592,-0.1674,-0.1651,-0.1613,-0.1543,-0.1486,-0.1701,-0.1669,-0.1322,-0.132,-0.1258,-0.1252,-0.1246,-0.1242,-0.1238,0,-0.0643,-0.0666,-0.0739,-0.0756,-0.0805,-0.0897,-0.0939,-0.1109,-0.1158,-0.1325,-0.1324,-0.1385,-0.1443,-0.1316,-0.1385,-0.1364,-0.1341,-0.1375,-0.1333,-0.1313,-0.1278,-0.1284,-0.1289,-0.1229,-0.1228,-0.1226,-0.1225,0,-0.0608,-0.0639,-0.0661,-0.0693,-0.0732,-0.0781,-0.0851,-0.0866,-0.1023,-0.1201,-0.1143,-0.115,-0.1119,-0.1106,-0.1165,-0.1123,-0.1393,-0.1317,-0.1327,-0.1288,-0.1277,-0.1249,-0.126,-0.1206,-0.1209,-0.121,-0.1211,0,-0.0579,-0.0573,-0.0603,-0.0626,-0.0642,-0.0628,-0.0691,-0.0705,-0.0763,-0.0932,-0.0842,-0.0924,-0.1006,-0.0968,-0.0958,-0.0977,-0.0928,-0.0955,-0.0983,-0.1005,-0.0933,-0.0883,-0.0647,0,0,0,0,0,-0.0553,-0.0539,-0.0543,-0.0526,-0.0524,-0.0546,-0.0603,-0.0668,-0.0768,-0.0677,-0.0779,-0.072,-0.0717,-0.0725,-0.0681,-0.0818,-0.0944,-0.0768,-0.0992,-0.11,-0.1122,-0.1063,0,0,0,0,0,0,-0.0531,-0.0525,-0.0515,-0.0434,-0.0407,-0.0397,-0.0417,-0.0491,-0.0449,-0.0562,-0.0527,-0.0669,-0.064,-0.0713,-0.0657,-0.0675,-0.08,-0.0822,-0.082,-0.1088,-0.1108,-0.1126,-0.1073,0,0,0,0,0]},{"header":{"parameterUnit":"m.s-1","parameterCategory":2,"la1":30.2991,"la2":30.254,"lo1":-89.0895,"lo2":-89.0444,"dy":0.0017,"dx":0.0017,"nx":28,"ny":28,"refTime":"2023-11-09T03:00:00:Z","depth":"4","parameterNumber":3,"parameterNumberName":"V-component_of_CURRENTS"},"data":[0,0,0,0,0,0,0,0,0,0,0,0,0,0,0,0,0,0,0,0,0,0,0,0,0,0,0,0,0,0,0,0,0,0,0,0,0,0,0,0,0,0,0,0,0,0,0,0,0,0,0,0,0,0,0,0,0,0,-0.0022,-0.0021,0,0.0005,0.0005,0.0005,0.0023,0.0023,0.0024,0.0024,0.0068,0.0069,0.007,0,0,0,0,0,0,0,0,0,0,0,0,0,-0.0059,-0.0058,-0.0022,-0.0021,-0.0021,0.0005,0.0005,0.0005,0.0023,0.0024,0.0024,0.0024,0.0068,0.0069,0.007,0,0,0,0,0,0,0,0,0,0,0,0,0,-0.004,-0.0058,-0.0022,-0.0007,-0.0005,0.0005,0.0005,0.0005,0.0023,0.0024,0.0024,0.0024,0.0068,0.0069,0.007,0.0069,0,0,0.0074,0.0075,0,0,0,0,0,0,0,0,-0.0041,-0.0039,-0.001,-0.0008,-0.0006,0.0013,0.0008,0.0028,0.0023,0.001,0.0024,0.0025,0.0052,0.0055,0.0056,0.0071,0.0073,0.0074,0.0075,0.0076,0.0076,0,0,0,0,0,0,0,-0.0043,-0.004,-0.0013,-0.0009,-0.0007,-0.0002,0.0001,0.0012,0.0027,0.0011,0.0013,0.0019,0.0053,0.0054,0.0057,0.0073,0.0074,0.0075,0.0076,0.0077,0.0095,0.0095,0,0,0,0,0,0,-0.0042,-0.0042,-0.0014,-0.0012,-0.0021,-0.0002,0.0001,0.0005,0.0026,0.0031,0.0019,0.002,0.0052,0.0055,0.0059,0.0062,0.0076,0.0077,0.0078,0.0095,0.0095,0.0094,0,0,0,0,0,0,-0.0043,-0.004,-0.0015,-0.0025,-0.0021,-0.0002,0.0002,0.0005,0.0009,0.0032,0.0037,0.0021,0.0052,0.0057,0.0069,0.0063,0.0078,0.0079,0.0096,0.0095,0.0095,0.0066,0,0,0,0,0,0,-0.0044,-0.0041,-0.0039,-0.0025,-0.002,-0.0012,0.0002,0.0005,0.0013,0.0015,0.0035,0.004,0.0053,0.0067,0.007,0.0066,0.008,0.0096,0.0095,0.0095,0.0067,0.0064,0.0062,0,0,0,0,0,-0.0046,-0.0044,-0.0039,-0.0036,-0.0018,-0.0012,-0.001,0.0004,0.0013,0.001,0.0026,0.0039,0.0066,0.0068,0.0072,0.0067,0.0096,0.0095,0.0095,0.0068,0.0065,0.0062,0,0,0,0,0,0,-0.0057,-0.0041,-0.0036,-0.0028,-0.0022,-0.0008,-0.0005,0.0003,0.0012,0.0015,0.0037,0.0042,0.005,0.0062,0.0064,0.007,0.0082,0.0082,0.0061,0.0058,0.0055,0.0054,0.0081,0,0,0,0,0,-0.0059,-0.0056,-0.0041,-0.0038,-0.0033,-0.0021,-0.0016,-0.001,0.0003,0.0007,0.0022,0.0037,0.0048,0.0056,0.0067,0.0072,0.0093,0.0071,0.0068,0.0066,0.0067,0.0098,0.0099,0.0092,0.0092,0.0092,0,0,-0.0062,-0.0053,-0.005,-0.004,-0.0033,-0.0039,-0.0017,-0.0013,-0.0023,0.0011,0.0007,0.0029,0.0048,0.0052,0.0056,0.0063,0.0078,0.0065,0.0063,0.0066,0.0098,0.0099,0.0099,0.0092,0.0092,0.0092,0,0,-0.0071,-0.0059,-0.0061,-0.0062,-0.0054,-0.005,-0.005,-0.0039,-0.0036,-0.0035,-0.0013,0.0005,0.002,0.0033,0.0042,0.0031,0.0063,0.0037,0.0024,0.0054,0.0055,0.0056,0.0079,0.0082,0.0036,0.0036,0.0036,0,-0.0074,-0.0079,-0.0062,-0.0071,-0.0078,-0.0058,-0.0073,-0.007,-0.0058,-0.006,-0.0042,-0.001,0.0008,0.0017,0.0019,0.0025,0.0051,0.0034,0.0051,0.0053,0.0055,0.0078,0.0082,0.0035,0.0035,0.0035,0.0035,0,-0.0089,-0.0099,-0.0101,-0.0111,-0.0115,-0.0124,-0.012,-0.0127,-0.0117,-0.0107,-0.0092,-0.0055,-0.0034,-0.0025,-0.0003,0.0016,0.0033,0.0044,0.006,0.0054,0.0078,0.0083,0.0033,0.0033,0.0033,0.0034,0,0,-0.0088,-0.0108,-0.0112,-0.0135,-0.014,-0.0152,-0.0169,-0.0179,-0.0199,-0.0162,-0.0173,-0.0125,-0.0087,-0.0073,-0.0036,-0.0003,0.0032,0.0031,0.0033,0.0054,0.0102,0.0018,0.0015,0.0055,0.0056,0.0056,0.0112,0,-0.0109,-0.014,-0.0145,-0.0191,-0.0209,-0.0215,-0.0239,-0.0247,-0.0242,-0.0248,-0.0191,-0.0172,-0.0111,-0.0089,-0.0047,0.0013,0.0045,0.0016,0.0104,0.0106,0.0033,0.0018,0.0059,0.0116,0.0117,0.0118,0.0119,0,-0.0126,-0.0149,-0.019,-0.0246,-0.0256,-0.0284,-0.0329,-0.0346,-0.0344,-0.0332,-0.0287,-0.0239,-0.017,-0.0125,-0.0008,-0.0023,0.0038,0.0086,0.0089,0.0025,0.0031,0.0125,0.0128,0.0127,0.0127,0.0126,0.0125,0,-0.014,-0.0188,-0.0226,-0.0243,-0.0293,-0.0326,-0.0352,-0.037,-0.0396,-0.0369,-0.0372,-0.028,-0.0234,-0.0132,-0.0008,-0.0002,0.0106,0.012,0.0099,0.0094,0.017,0.0168,0.0188,0.0187,0.0187,0.0187,0.0187,0,-0.0163,-0.0199,-0.0243,-0.0267,-0.0336,-0.0355,-0.0422,-0.0433,-0.0454,-0.0486,-0.0401,-0.04,-0.0228,-0.0145,-0.0033,0.0047,0.0094,0.009,0.0098,0.0155,0.0151,0.0173,0.0171,0.0189,0.0189,0.0188,0.0188,0,-0.0175,-0.0197,-0.0252,-0.0314,-0.0344,-0.039,-0.0473,-0.0516,-0.0518,-0.0557,-0.0539,-0.0472,-0.0382,-0.023,-0.0077,-0.0004,0.0093,0.011,0.0155,0.0167,0.0066,0.0062,0.0076,0.0073,0.0071,0.0069,0.0067,0,-0.0185,-0.0209,-0.0286,-0.0331,-0.0367,-0.0441,-0.0496,-0.0535,-0.057,-0.0611,-0.0623,-0.0566,-0.0508,-0.033,-0.0197,-0.0015,0.0009,0.0082,0.0076,0.0046,0.0054,0.0053,0.0051,0.0064,0.0063,0.0063,0.0062,0,-0.0207,-0.0228,-0.0271,-0.0352,-0.0421,-0.051,-0.0582,-0.0606,-0.0649,-0.0674,-0.067,-0.0604,-0.054,-0.0388,-0.0244,-0.0115,0.0051,0.006,0.0065,0.0059,0.0032,0.0041,0.0043,0.0054,0.0056,0.0056,0.0057,0,-0.0221,-0.0253,-0.0301,-0.0374,-0.046,-0.0537,-0.0582,-0.0626,-0.0663,-0.0686,-0.0701,-0.0632,-0.0586,-0.0448,-0.0323,-0.0203,-0.0189,-0.0107,-0.0093,-0.0083,-0.0155,-0.0215,-0.0269,0,0,0,0,0,-0.0237,-0.0266,-0.0328,-0.0402,-0.048,-0.0533,-0.0623,-0.0656,-0.0697,-0.069,-0.069,-0.0633,-0.0518,-0.0474,-0.0371,-0.0387,-0.0172,-0.0266,-0.007,0.0012,0.0021,-0.0046,0,0,0,0,0,0,-0.0253,-0.0298,-0.0318,-0.0401,-0.045,-0.0545,-0.0596,-0.0633,-0.0619,-0.0648,-0.0573,-0.0595,-0.0466,-0.0555,-0.0359,-0.0339,-0.0199,-0.0226,-0.0224,0.0007,0.0015,0.0022,-0.0044,0,0,0,0,0]}]]